Luxor, Egypt

9:52 PM EET on December 06, 2016 (GMT +0200)
Luxor International

Weather History for HELX - January, 2014

Change the Weather History Date:

Monday, January 13, 2014

  Actual Average Record
Temperature  
Mean Temperature 58 °F -  
Max Temperature 72 °F 70 °F 84 °F (2003)
Min Temperature 44 °F 44 °F 37 °F (2002)
Degree Days  
Heating Degree Days 7    
Growing Degree Days 8 (Base 50)    
Moisture  
Dew Point 46 °F    
Average Humidity 64    
Maximum Humidity 81    
Minimum Humidity 50    
Precipitation  
Precipitation 0.00 in - - ()
Sea Level Pressure  
Sea Level Pressure 30.10 in    
Wind  
Wind Speed 1 mph ()    
Max Wind Speed 8 mph    
Max Gust Speed -    
Visibility 3.7 miles    
Events      
Averages and records for this station are not official NWS values.
T = Trace of Precipitation, MM = Missing Value Source: Averaged Metar Reports

Daily Weather History Graph

Daily Weather History Graph

Search for Another Location

Airport or City:

Trip Planner

Search our weather history database for the weather conditions in past years. The results will help you decide how hot, cold, wet, or windy it might be!

Date:

Astronomy

Jan. 13, 2014 Rise Set
Actual Time 6:37 AM EET 5:18 PM EET
Civil Twilight 6:12 AM EET 5:43 PM EET
Nautical Twilight 5:44 AM EET 6:11 PM EET
Astronomical Twilight 5:16 AM EET 6:39 PM EET
Moon 3:15 PM EET (1/13) 4:11 AM EET (1/13)
Length of Visible Light 11h 30m
Length of Day
10h 41m
Waxing Gibbous, 93% of the Moon is Illuminated
Jan 13
Waxing Gibbous
Jan 16
Full
Jan 24
Last Quarter
Jan 30
New
Feb 6
First Quarter

Hourly Weather History & Observations

Time (EET) Temp. Dew Point Humidity Pressure Visibility Wind Dir Wind Speed Gust Speed Precip Events Conditions
12:00 AM 55.4 °F 44.6 °F 67% 30.15 in - ENE 2.3 mph - N/A   Clear
1:00 AM 51.8 °F 41.0 °F 67% 30.15 in - SSE 2.3 mph - N/A   Clear
2:00 AM 50.0 °F 41.0 °F 71% 30.15 in - Calm Calm - N/A   Clear
3:00 AM 50.0 °F 41.0 °F 71% 30.12 in - Calm Calm - N/A   Clear
4:00 AM 46.4 °F 39.2 °F 76% 30.12 in - Calm Calm - N/A   Clear
5:00 AM 44.6 °F 39.2 °F 81% 30.15 in - Calm Calm - N/A   Clear
6:00 AM 44.6 °F 39.2 °F 81% 30.15 in - Calm Calm - N/A   Clear
7:00 AM 44.6 °F 39.2 °F 81% 30.18 in - Calm Calm - N/A   Clear
8:00 AM 50.0 °F 41.0 °F 71% 30.18 in - East 2.3 mph - N/A   Clear
9:00 AM 57.2 °F 44.6 °F 63% 30.21 in - East 3.5 mph - N/A   Clear
11:00 AM 64.4 °F 50.0 °F 59% 30.15 in - Calm Calm - N/A   Clear
12:00 PM 68.0 °F 51.8 °F 56% 30.12 in 3.7 mi North 2.3 mph - N/A   Unknown
1:00 PM 69.8 °F 53.6 °F 56% 30.06 in 3.7 mi ENE 3.5 mph - N/A   Unknown
2:00 PM 71.6 °F 53.6 °F 53% 30.04 in 3.7 mi NE 2.3 mph - N/A   Unknown
3:00 PM 73.4 °F 53.6 °F 50% 30.04 in - North 8.1 mph - N/A   Clear
4:00 PM 73.4 °F 53.6 °F 50% 30.04 in - NNW 2.3 mph - N/A   Clear
5:00 PM 69.8 °F 51.8 °F 53% 30.04 in - North 2.3 mph - N/A   Clear
6:00 PM 66.2 °F 53.6 °F 64% 30.04 in - Calm Calm - N/A   Clear
7:00 PM 62.6 °F 50.0 °F 63% 30.04 in 3.7 mi Calm Calm - N/A   Unknown
8:00 PM 61 °F 48 °F 52% 30.06 in 4 mi Calm Calm - -   Haze
8:00 PM 60.8 °F 48.2 °F 63% 30.06 in 3.7 mi Calm Calm - N/A   Unknown
9:00 PM 59.0 °F 46.4 °F 63% 30.06 in - SSE 2.3 mph - N/A   Clear
10:00 PM 57.2 °F 46.4 °F 67% 30.06 in - Calm Calm - N/A   Clear
11:00 PM 55.4 °F 44.6 °F 67% 30.04 in - Calm Calm - N/A   Clear